This demonstration page uses our WeatherBlox Daily Observations layout. Learn more.

Left ArrowRight Arrow

Hourly Observations for December 29, 2015

Temp ( °F °C ) Dew Point ( °F °C ) Humidity (%) Winds ( mph kmh ) Pressure ( in mb ) Visibility ( mi km ) Precip ( " mm )
12:25 am 00:25 Cloudy 21 -6 16 -9 80 80 NW 12 19 29.91 1013 10 16 0.00 0.00
12:58 am 00:58 Cloudy 21 -6.3 17 -8.5 85 85 WNW 14 22 29.94 1014 10 16 0.00 0.03
1:58 am 01:58 Cloudy 20 -6.5 16 -8.8 84 84 NW 9 15 29.96 1015 10 16 0.00 0.00
2:58 am 02:58 Cloudy 20 -6.5 16 -8.8 84 84 NW 13 20 29.99 1016 10 16 0.00 0.00
3:58 am 03:58 Cloudy 20 -6.6 15 -9.2 82 82 NW 13 20 30.02 1017 10 16 0.00 0.00
4:58 am 04:58 Cloudy 20 -6.5 15 -9.2 81 81 NW 10 17 30.03 1017 10 16 0.00 0.00
5:34 am 05:34 Cloudy 19 -7 16 -9 86 86 NW 9 15 30.06 1018 10 16 0.00 0.00
5:49 am 05:49 Cloudy 19 -7 16 -9 86 86 NW 9 15 30.06 1018 10 16 0.00 0.00
5:58 am 05:58 Cloudy 20 -6.5 15 -9.3 81 81 NW 8 13 30.05 1018 10 16 0.00 0.00
6:48 am 06:48 Cloudy 19 -7 16 -9 86 86 NW 10 17 30.09 1019 10 16 0.00 0.00
6:58 am 06:58 Cloudy 20 -6.5 15 -9.2 81 81 NW 8 13 30.07 1018 10 16 0.00 0.00
7:17 am 07:17 Cloudy 19 -7 16 -9 86 86 NW 6 9 30.09 1019 10 16 0.00 0.00
7:58 am 07:58 Cloudy 19 -7.1 15 -9.5 83 83 WNW 5 7 30.09 1019 10 16 0.00 0.00
8:21 am 08:21 Mostly Cloudy 18 -8 14 -10 86 86 WNW 7 11 30.12 1020 10 16 0.00 0.00
8:58 am 08:58 Cloudy 19 -7.4 14 -9.8 83 83 WNW 7 11 30.12 1020 10 16 0.00 0.00
9:58 am 09:58 Mostly Cloudy 21 -6.2 15 -9.3 79 79 WNW 9 15 30.14 1021 10 16 0.00 0.00
10:28 am 10:28 Cloudy 21 -6 16 -9 80 80 WNW 8 13 30.18 1022 10 16 0.00 0.00
10:58 am 10:58 Cloudy 23 -5.1 16 -8.8 76 76 WNW 7 11 30.17 1022 10 16 0.00 0.00
11:17 am 11:17 Cloudy 23 -5 16 -9 74 74 NW 6 9 30.21 1023 10 16 0.00 0.00
11:58 am 11:58 Cloudy 24 -4.6 17 -8.6 74 74 WNW 6 9 30.16 1021 10 16 0.00 0.00
12:58 pm 12:58 Cloudy 25 -4.1 17 -8.3 73 73 WNW 7 11 30.15 1021 10 16 0.00 0.00
1:58 pm 13:58 Cloudy 26 -3.5 17 -8.3 70 70 WNW 6 9 30.15 1021 10 16 0.00 0.00
2:58 pm 14:58 Cloudy 26 -3.5 18 -8 71 71 NW 9 15 30.16 1021 10 16 0.00 0.00
3:58 pm 15:58 Cloudy 26 -3.5 17 -8.3 70 70 WNW 7 11 30.19 1022 10 16 0.00 0.00
4:58 pm 16:58 Cloudy 25 -3.7 17 -8.2 71 71 NW 7 11 30.21 1023 10 16 0.00 0.00
5:58 pm 17:58 Cloudy 25 -3.9 18 -8 73 73 NNW 8 13 30.20 1023 10 16 0.00 0.00
6:40 pm 18:40 Cloudy 25 -4 18 -8 74 74 NNW 5 7 30.21 1023 10 16 0.00 0.00
6:51 pm 18:51 Cloudy 25 -4 18 -8 74 74 NW 6 9 30.21 1023 10 16 0.00 0.00
6:52 pm 18:52 Cloudy 25 -4 18 -8 74 74 NW 5 7 30.21 1023 10 16 0.00 0.00
6:58 pm 18:58 Cloudy 25 -4 19 -7.5 77 77 NW 6 9 30.22 1023 10 16 0.00 0.00
7:04 pm 19:04 Cloudy 25 -4 18 -8 74 74 NW 5 7 30.21 1023 10 16 0.00 0.00
7:20 pm 19:20 Cloudy 25 -4 18 -8 74 74 NW 3 6 30.27 1025 10 16 0.00 0.00
7:33 pm 19:33 Cloudy 25 -4 18 -8 74 74 NNE 2 4 30.27 1025 10 16 0.00 0.00
7:58 pm 19:58 Cloudy 24 -4.2 19 -7.5 78 78 NNW 2 4 30.24 1024 10 16 0.00 0.00
8:39 pm 20:39 Cloudy 23 -5 19 -7 86 86 NW 3 6 30.27 1025 10 16 0.00 0.00
8:58 pm 20:58 Cloudy 25 -4 19 -7 80 80 N 6 9 30.24 1024 10 16 0.00 0.00
8:59 pm 20:59 Cloudy 25 -4 19 -7 80 80 N 6 9 30.27 1025 10 16 0.00 0.00
9:01 pm 21:01 Cloudy 25 -4 19 -7 80 80 N 6 9 30.27 1025 10 16 0.00 0.00
9:19 pm 21:19 Cloudy 25 -4 19 -7 80 80 N 5 7 30.27 1025 10 16 0.00 0.00
9:26 pm 21:26 Cloudy 25 -4 19 -7 80 80 N 5 7 30.27 1025 10 16 0.00 0.00
9:28 pm 21:28 Cloudy 25 -4 19 -7 80 80 N 6 9 30.27 1025 10 16 0.00 0.00
9:30 pm 21:30 Cloudy 25 -4 19 -7 80 80 N 5 7 30.27 1025 10 16 0.00 0.00
9:58 pm 21:58 Cloudy 24 -4.4 19 -7.5 79 79 N 6 9 30.24 1024 10 16 0.00 0.00
10:16 pm 22:16 Cloudy 23 -5 19 -7 86 86 NNW 5 7 30.27 1025 10 16 0.00 0.00
10:41 pm 22:41 Cloudy 23 -5 19 -7 86 86 N 5 7 30.27 1025 10 16 0.00 0.00
10:58 pm 22:58 Cloudy 24 -4.6 19 -7.4 81 81 N 3 6 30.25 1024 10 16 0.00 0.00
11:58 pm 23:58 Cloudy 24 -4.7 19 -7.1 84 84 ENE 2 4 30.26 1025 10 16 0.00 0.00

Powered by AerisWeather